sat.trackr.live / text

‹ back to catalog

ONEWEB-0697

NORAD 61603 · 2024-188K

PAYLOAD ACTIVE UNKNOWN

§ Identity

Operator
Country
UK
Launch date
2024-10-20
Launch site
AFWTR
Launch vehicle
Mass (kg)
RCS (m²)

Purposes: comms

External: N2YO · Heavens-Above · Gunter

§ Orbital elements

Epoch: 2026-05-25T02:33:45.201024Z

Period
109.80 min
Inclination
87.8911°
Eccentricity
0.0001041
Mean motion
13.11417881 rev/d
Perigee alt
1,216.9 km
Apogee alt
1,218.5 km
Semi-major
7,595.8 km
B*
1.0323e-3
RAAN
25.6592°
Arg perigee
87.8839°
Mean anomaly
272.2408°
Rev number
8,142

§ Raw data

ONEWEB-06971 61603U 24188K   26145.10677316  .00000379  00000+0  10323-2 0  99972 61603  87.8911  25.6592 0001041  87.8839 272.2408 13.11417881 81425

JSON: /api/v1/satellites/61603 · /tle

For live sub-satellite position, see the globe view (requires WebGL).

§ Visibility from observer

Set your observer location to see the next 7 days of passes ≥ 10°. The values pass through the URL so the page stays shareable.

No JS? Fill the form by hand. The geolocation button needs JavaScript.